Theta_e
287 287 287 286 286 287 286 287 282 285 286 289 292 292 292 292 292 292 293 292 289 287 286 284 282 281 280 279 280 280 280 279 279 280 280 280 279 280 280 281 281 282 282 283
283 287 287 284 286 287 287 288 288 288 287 294 294 295 293 293 292 292 294 292 291 289 287 284 282 280 280 278 279 279 279 278 278 278 279 279 278 279 279 279 280 281 281 281
279 284 283 281 285 286 286 288 288 284 289 293 292 293 293 293 294 294 293 293 291 289 286 283 281 279 278 278 278 278 278 277 277 277 277 277 278 278 278 278 278 279 279 280
279 277 274 284 290 290 288 289 290 290 291 292 293 294 295 293 293 293 292 294 292 287 283 281 279 278 277 277 277 277 277 276 276 276 276 277 277 276 276 277 277 277 278 278
279 277 281 282 285 285 284 285 290 290 291 292 293 293 292 295 293 293 293 293 291 286 282 278 277 276 276 276 276 276 275 275 275 275 275 276 276 275 276 276 276 276 277 277
281 276 274 283 288 290 287 278 288 290 290 290 291 285 289 294 289 285 284 284 282 279 277 276 275 276 275 275 275 274 274 274 274 274 274 274 274 274 276 275 276 276 277 277
279 277 277 285 286 289 278 281 289 289 290 289 287 290 287 283 281 280 279 277 277 276 275 275 275 276 275 274 273 273 272 272 272 272 272 273 273 273 274 274 274 275 275 276
280 277 275 288 285 282 285 286 287 286 287 287 285 282 281 279 277 276 276 276 275 274 273 274 275 275 273 272 271 270 270 270 269 270 271 272 271 272 273 273 273 273 273 273
280 280 286 287 286 288 287 286 284 283 284 284 283 280 279 277 276 275 275 275 275 273 272 272 273 274 271 269 269 268 268 267 268 269 270 270 270 271 270 271 270 270 270 270
281 284 284 284 284 284 283 283 282 282 281 281 280 279 278 276 276 274 273 273 272 271 269 268 269 271 269 267 267 266 266 267 268 268 268 269 270 270 269 268 268 267 267 267
278 283 282 284 284 285 283 280 280 278 279 279 279 278 277 275 274 273 271 271 270 269 268 267 267 265 265 265 265 265 266 266 267 267 267 267 268 268 268 268 268 263 261 265
279 282 283 284 282 280 281 278 277 276 275 276 277 276 274 273 272 271 269 269 269 268 266 265 264 263 262 263 263 264 265 266 265 265 265 265 265 265 268 269 270 270 271 269
284 282 281 278 275 275 275 273 273 274 274 273 273 273 272 270 270 269 268 268 268 266 265 264 263 261 261 261 261 261 262 263 263 264 264 263 263 262 259 263 267 268 268 269
276 277 277 275 277 275 275 272 271 270 270 270 269 269 269 268 269 268 267 268 267 265 264 263 262 260 260 260 260 259 259 261 261 262 261 260 261 260 260 259 258 259 263 265
273 271 272 271 270 269 269 267 265 266 266 266 266 268 268 267 267 267 267 266 265 263 262 261 261 259 259 258 258 258 259 261 259 260 260 259 258 259 259 257 256 254 254 259
264 264 264 265 267 265 264 264 265 265 266 267 268 268 268 268 266 264 263 263 262 261 260 260 259 258 257 256 257 257 257 258 257 255 255 255 257 255 254 252 251 251 252 253
262 261 260 263 266 266 267 268 269 268 267 266 267 267 265 263 261 260 260 261 261 261 259 259 258 256 256 255 255 255 254 253 254 250 249 249 249 249 250 248 250 251 252 255
262 262 264 267 267 267 268 268 269 267 267 267 264 263 262 262 260 259 257 256 255 253 253 255 254 251 250 248 248 249 249 248 248 247 248 248 247 248 247 247 250 250 253 252
256 256 257 260 263 265 267 266 265 263 262 261 261 260 260 259 258 255 253 251 250 250 252 252 259 250 246 246 248 247 248 248 247 246 247 248 246 246 248 248 249 249 250 251
256 254 254 254 254 256 256 254 256 255 252 256 256 255 253 249 251 250 247 248 249 251 248 249 248 250 248 248 255 248 247 247 248 247 246 245 247 247 247 250 250 250 251 251
253 253 255 256 254 252 256 256 256 254 251 254 255 254 253 249 248 249 246 248 251 250 249 250 248 248 248 248 248 244 244 246 247 247 246 247 246 247 248 248 249 251 251 252
252 251 251 251 251 249 249 250 252 253 252 251 249 252 252 248 246 245 246 251 248 251 249 248 248 248 247 253 247 246 246 247 248 247 247 247 247 248 250 250 251 252 252 252
252 251 251 250 251 250 248 248 248 251 251 250 251 251 252 253 251 250 250 251 250 249 249 249 250 253 253 248 246 247 248 248 249 249 249 248 251 251 251 251 252 252 252 252
254 254 252 251 250 249 250 248 248 247 247 247 249 250 251 251 249 249 250 251 252 254 249 249 253 259 256 249 249 249 250 250 250 249 251 252 252 252 251 251 251 252 252 252
256 255 253 252 253 253 253 252 250 247 247 248 247 248 249 250 252 249 250 250 254 250 249 252 258 258 252 250 250 250 251 250 250 250 251 252 252 251 251 252 252 252 252 252
255 256 255 255 256 257 257 254 255 254 252 252 251 252 251 249 250 250 248 249 249 250 249 249 248 249 249 250 249 250 251 252 252 252 252 252 252 251 251 252 252 252 252 252
256 257 256 255 255 255 257 257 258 256 256 256 255 255 253 251 251 250 250 250 250 250 249 249 250 251 249 250 250 251 251 251 252 252 252 252 252 252 252 253 253 253 253 253
Wind_Speed
17 11 5 7 12 16 18 24 15 22 22 25 16 10 9 10 9 7 11 12 10 9 9 9 8 6 6 6 5 4 5 5 5 5 5 5 4 5 5 5 5 5 5 6
13 15 15 15 12 12 23 22 17 25 23 22 17 14 13 12 7 9 12 13 14 14 13 13 11 9 7 6 5 4 6 5 5 4 5 5 4 5 5 5 5 5 6 6
13 13 8 11 23 19 15 17 19 18 25 22 24 19 17 13 11 17 12 15 14 17 14 12 12 10 8 7 5 5 6 5 5 4 5 4 4 4 4 5 5 5 5 6
7 4 15 12 11 17 22 18 16 18 22 24 21 23 20 6 11 10 10 16 15 10 12 12 10 10 9 7 5 5 5 6 4 4 4 3 4 4 5 4 5 4 5 5
9 11 11 9 10 11 10 19 18 22 24 23 21 19 20 16 9 13 11 11 10 10 12 13 13 11 9 7 6 6 5 5 5 3 4 3 4 4 4 4 4 3 4 4
5 9 16 11 15 12 5 4 16 18 15 17 17 12 16 15 2 4 6 6 14 14 14 13 11 10 10 8 7 6 5 5 4 4 4 2 3 3 3 3 4 4 5 4
10 8 6 7 7 7 9 14 17 11 15 14 10 9 3 5 6 6 9 13 15 14 12 11 10 9 9 8 8 7 5 5 4 3 1 2 4 3 3 4 4 4 6 5
6 10 17 7 4 13 12 3 5 6 9 9 5 2 4 5 7 8 10 12 13 13 13 11 9 8 9 8 7 5 5 5 4 3 2 3 3 3 4 4 4 4 4 3
7 7 7 10 11 13 6 7 4 3 5 6 5 6 8 7 9 8 8 9 6 10 13 9 8 9 10 8 7 5 4 4 2 2 2 3 3 3 2 4 2 3 4 4
1 12 10 5 4 4 4 5 6 6 6 6 6 7 7 8 9 9 8 7 9 11 10 9 5 10 12 8 7 6 5 3 2 1 2 3 3 3 2 2 2 4 4 4
5 12 3 8 6 7 6 4 5 4 5 7 6 8 9 8 10 10 10 9 10 9 8 9 9 7 9 7 5 6 5 3 2 1 2 2 2 1 2 2 2 1 3 2
10 6 7 11 4 1 6 5 5 6 5 3 6 7 6 7 7 9 10 9 10 9 9 9 8 8 7 6 5 4 4 3 2 0 1 1 1 2 5 7 7 9 9 6
15 3 6 2 3 2 3 3 2 6 4 6 3 6 8 9 8 10 8 9 11 12 10 7 8 8 7 6 5 4 4 2 1 1 1 0 1 1 2 4 9 9 10 11
3 6 4 6 5 6 6 6 6 5 5 6 6 7 8 10 11 11 10 8 10 12 10 8 7 7 6 6 5 4 2 4 2 1 1 1 1 1 2 3 4 4 7 12
4 3 3 5 5 4 5 5 5 5 4 6 5 9 11 12 11 10 10 9 9 10 8 8 7 6 5 5 5 4 4 3 2 1 1 1 2 3 3 3 3 3 4 8
3 5 4 4 5 5 4 5 7 6 6 7 8 8 8 8 9 8 10 8 9 8 8 6 5 6 5 4 4 3 4 4 2 0 1 2 3 2 2 2 3 3 3 4
5 2 1 3 8 8 9 7 6 9 8 8 8 9 10 10 10 8 6 5 5 6 7 6 6 5 5 4 4 2 2 2 3 1 3 3 2 3 3 2 4 4 5 6
3 3 3 2 5 7 7 6 6 8 7 8 9 9 10 10 10 9 8 6 5 3 2 4 6 6 5 5 3 1 2 3 2 3 3 3 3 3 3 3 5 5 7 5
5 3 4 5 2 6 6 6 6 7 8 9 9 8 6 5 7 6 7 6 5 4 5 7 10 8 5 5 4 2 3 3 3 3 4 4 3 4 4 5 5 5 6 6
3 2 4 3 5 4 6 4 7 7 4 7 8 7 7 4 6 7 4 6 6 5 5 6 4 6 5 5 4 3 3 4 4 4 3 3 4 5 5 7 6 6 7 7
4 3 3 6 5 4 7 8 10 9 7 8 10 9 9 7 6 7 5 2 5 6 6 7 6 4 3 4 4 3 3 4 4 5 4 4 4 5 5 6 6 7 8 8
3 3 3 3 1 2 1 3 5 7 7 7 6 7 8 6 5 3 4 4 3 6 5 4 4 6 4 7 4 5 5 5 5 4 5 5 5 6 7 7 8 8 8 8
4 4 4 4 4 4 3 3 3 6 7 6 7 7 7 6 6 5 3 5 5 6 4 4 6 8 9 4 4 5 5 6 6 6 5 5 7 7 8 8 9 8 8 9
4 4 4 5 6 5 5 2 3 2 3 4 4 5 5 4 1 3 3 5 6 6 5 4 6 10 10 5 5 5 6 6 6 5 7 9 8 8 8 9 10 9 10 11
5 5 5 5 5 4 5 7 5 4 4 3 4 4 5 3 4 3 4 4 7 5 4 7 9 10 5 5 5 5 6 5 6 5 7 8 9 9 9 9 10 10 10 10
7 6 5 6 4 4 4 6 4 5 4 3 3 4 4 3 3 3 3 4 4 5 4 4 3 4 4 5 5 6 7 7 8 8 9 10 10 10 10 11 11 11 11 11
3 5 4 3 2 2 4 5 6 6 6 5 4 5 5 4 4 4 5 4 4 4 4 4 5 6 5 6 7 7 8 8 10 9 9 10 10 10 11 11 11 11 10 10
Wind_Direction
241 260 224 191 205 216 218 231 220 244 240 257 254 247 256 229 226 184 177 183 175 177 180 170 162 149 133 131 128 139 114 97 86 75 66 55 34 20 14 16 4 352 2 8
239 236 234 244 197 209 223 236 247 253 261 269 275 277 281 279 272 220 197 188 194 190 180 178 164 160 151 141 140 134 111 103 87 74 68 54 30 19 20 11 1 5 13 6
236 234 236 252 233 219 222 226 228 239 249 259 267 267 261 261 249 254 202 199 197 200 184 167 158 142 151 143 140 135 120 106 88 77 74 51 32 30 20 11 2 12 12 6
250 77 235 235 230 218 228 234 231 243 250 252 257 267 269 233 242 243 215 207 206 173 160 152 136 127 122 127 137 131 118 109 98 82 77 47 46 33 20 3 359 9 8 351
233 235 262 306 231 205 203 238 232 238 247 257 266 273 280 261 215 227 223 215 192 153 138 129 133 128 131 138 137 130 126 110 96 75 73 39 54 24 13 357 348 354 349 344
188 228 235 241 236 225 179 238 240 234 241 243 253 262 268 282 156 93 69 117 126 119 120 122 129 131 137 142 144 131 128 113 94 86 74 32 44 23 357 346 344 340 340 348
229 241 252 229 143 86 163 234 250 213 227 246 237 238 296 96 61 85 107 111 111 113 119 122 127 136 144 144 137 127 125 116 96 68 37 72 46 2 352 347 350 334 338 352
218 230 247 201 91 184 216 156 214 200 213 230 233 155 128 111 116 113 120 125 128 123 125 127 130 144 141 131 118 113 112 104 89 61 14 37 21 358 1 2 352 346 345 342
171 214 217 191 198 218 199 211 228 182 188 192 196 193 161 162 142 129 131 131 114 122 123 125 135 138 130 118 118 105 101 94 87 49 51 22 31 15 8 4 1 351 348 349
176 250 237 235 225 162 138 191 180 179 170 176 193 178 174 153 147 141 134 130 121 125 119 112 59 102 116 129 121 125 120 111 100 54 30 45 15 4 7 5 13 359 345 335
259 260 8 302 249 209 221 193 179 166 191 210 190 192 170 164 152 146 137 128 131 136 136 130 118 102 110 113 119 125 126 124 115 120 70 33 17 342 329 327 295 259 241 238
235 230 188 238 219 110 201 205 199 168 170 195 190 172 145 137 136 141 137 133 131 135 128 132 128 129 121 113 116 123 135 129 118 65 46 24 343 337 319 306 305 305 310 308
250 245 197 132 111 101 132 122 101 136 147 148 129 128 132 132 131 129 135 139 139 129 133 144 141 140 127 116 113 114 124 135 171 209 135 88 336 321 300 312 316 316 324 324
186 130 258 179 221 134 112 90 89 80 78 101 112 101 120 127 130 136 143 144 134 130 140 147 159 146 138 128 130 124 172 178 200 164 136 230 246 262 267 278 293 289 313 320
173 84 122 102 85 83 96 113 108 127 120 105 101 131 138 145 150 147 136 132 132 128 134 148 159 149 141 131 151 169 197 185 157 157 205 226 260 255 254 254 259 273 315 316
91 88 104 139 167 150 130 158 149 162 160 149 148 145 142 138 114 125 112 131 143 155 150 158 165 151 143 153 160 184 202 183 149 284 284 258 250 251 281 282 283 280 276 270
105 297 169 215 190 190 199 185 175 168 149 146 143 130 118 116 112 114 117 108 102 136 155 161 162 142 152 169 181 197 152 148 186 205 235 235 233 248 251 248 264 264 262 265
89 64 13 96 181 175 176 157 143 149 157 138 127 128 131 146 155 154 152 133 115 101 152 161 148 161 171 167 174 203 174 199 196 209 230 248 246 234 242 251 258 261 275 268
40 54 23 54 48 125 135 128 122 115 126 135 140 151 140 128 139 134 130 139 155 160 229 176 180 159 171 196 179 188 206 211 223 231 222 230 245 244 243 242 251 252 260 273
122 105 83 72 45 103 119 108 115 110 113 117 115 121 124 118 126 132 130 176 192 207 153 159 155 162 184 204 200 186 199 209 214 226 222 230 236 244 244 246 249 257 263 261
164 153 145 150 155 150 148 154 144 150 159 146 149 159 157 154 143 140 120 166 245 172 154 160 168 184 183 190 186 194 210 229 228 232 232 234 242 245 249 248 249 253 259 258
158 154 175 153 135 104 99 118 110 128 135 128 123 134 136 152 149 195 226 181 199 161 162 175 190 196 189 191 190 210 220 226 230 229 238 239 238 247 254 251 254 258 258 260
146 148 137 134 141 153 51 64 109 144 152 157 158 163 166 171 167 154 222 217 175 183 179 190 194 189 195 195 209 220 225 229 232 229 232 231 244 246 252 259 261 260 261 261
140 139 140 131 117 105 144 215 129 136 143 157 168 169 155 146 281 211 131 143 157 184 189 202 215 213 210 204 215 221 225 228 226 224 239 243 248 251 251 255 258 260 258 260
145 139 133 144 157 186 168 159 136 137 139 170 186 198 205 219 160 205 151 167 186 182 206 220 224 227 219 217 221 227 232 229 231 229 244 250 253 252 253 254 254 257 259 259
165 178 176 183 185 172 158 157 173 167 162 198 218 200 202 203 179 160 170 181 181 196 214 217 217 228 230 233 233 237 245 248 245 245 246 250 252 252 255 257 258 256 256 259
139 157 146 154 199 174 153 174 177 183 185 188 206 195 186 179 184 180 191 195 201 215 221 222 224 229 225 233 240 245 247 249 244 248 250 252 253 253 255 256 256 258 259 259